GFSNE_sfc_dewp_057.txt.gz
Dewpoint
71 70 72 70 70 69 65 63 63 60 60 64 64 66 66 67 69 69 67 68 68 66 65 65 65 66 66 67 67 68 68 68 68 68 68 69 70 70
72 72 71 71 70 71 67 67 66 63 60 65 64 67 68 66 69 67 66 69 69 67 66 65 64 65 65 66 66 66 66 66 67 67 67 67 68 69
72 72 72 72 71 71 73 71 67 67 64 64 68 68 68 68 69 69 69 68 70 67 66 65 64 64 65 66 66 65 65 65 65 65 66 66 67 68
72 72 71 73 72 71 72 71 71 71 69 66 68 67 68 69 69 69 70 71 71 69 66 65 64 64 64 64 64 63 63 63 63 63 64 65 65 66
72 72 72 71 72 73 72 72 71 70 72 70 69 71 72 72 71 70 72 73 72 70 66 65 65 64 63 62 61 61 59 59 60 61 61 62 63 64
73 73 73 73 72 72 73 72 72 72 71 71 70 70 70 70 71 70 69 71 71 71 70 67 69 68 65 63 62 61 59 58 57 57 58 59 60 61
72 73 73 73 72 72 74 73 73 73 72 72 71 70 70 70 69 71 70 69 70 70 70 75 74 73 74 69 67 66 63 60 58 57 57 56 56 57
73 73 73 72 71 68 69 70 73 73 72 72 71 71 70 70 71 70 70 70 69 72 75 73 74 74 74 75 69 65 63 61 60 59 57 57 56 56
73 73 73 72 71 73 69 66 66 66 67 70 70 70 70 70 71 70 71 72 72 73 74 72 73 73 74 74 68 63 60 58 57 56 57 56 56 55
73 73 72 72 72 72 72 72 71 69 69 69 69 70 71 72 72 72 73 73 74 71 73 71 72 73 74 73 66 61 58 57 56 56 55 54 52 52
72 72 73 73 69 66 71 72 72 74 70 65 66 66 65 65 68 71 72 72 69 71 73 72 72 72 72 70 64 61 58 56 55 55 55 53 52 52
69 71 66 71 67 64 70 69 69 69 71 72 72 68 65 67 63 68 70 69 70 71 73 72 72 71 65 67 63 63 61 57 55 54 54 53 51 54
68 68 70 63 59 59 60 69 70 71 71 73 73 73 73 75 75 71 71 72 71 72 73 73 71 67 65 63 63 62 61 58 57 55 52 51 50 51
68 69 68 63 60 59 60 61 60 63 72 71 71 71 71 72 74 75 74 75 75 75 75 73 71 65 62 60 59 61 60 57 55 54 53 52 51 51
70 68 65 61 57 59 59 60 59 66 69 70 70 71 72 74 73 73 74 75 74 74 75 74 70 65 63 61 59 58 55 55 55 53 52 52 51 52
67 67 66 65 65 67 63 59 65 67 68 69 72 72 72 71 71 72 72 72 71 67 69 71 66 63 62 61 59 57 55 53 53 52 51 51 51 52
68 70 69 69 69 70 72 68 67 71 72 73 73 72 71 72 71 72 73 71 67 63 62 66 62 60 59 60 57 55 53 52 52 50 50 50 51 52
67 70 70 71 71 70 71 73 72 71 73 73 72 71 71 70 71 71 70 63 61 62 63 62 62 61 58 56 57 55 52 52 52 50 49 48 49 52
70 70 71 71 71 71 70 72 72 72 72 71 70 70 70 71 69 64 63 64 64 62 62 62 61 61 58 56 56 54 53 52 51 49 49 48 47 48
70 70 71 70 70 70 71 70 70 70 70 70 68 66 65 65 64 63 62 61 60 60 60 61 61 59 58 57 56 54 49 52 52 50 48 49 50 52
69 68 68 68 68 67 67 67 67 66 66 65 64 64 64 63 63 63 61 57 57 60 59 59 61 59 60 60 57 55 53 50 53 52 49 48 46 46
68 67 67 67 67 67 66 66 65 65 65 64 63 63 62 62 62 61 61 60 60 61 62 61 62 61 60 60 58 56 55 52 51 51 53 52 49 46
67 67 66 66 65 65 64 64 63 63 63 61 61 60 61 60 60 60 59 59 59 58 58 58 60 60 59 60 58 57 57 55 52 52 51 52 52 51

GFSNE_sfc_dewp_060.txt.gz
Dewpoint
70 69 70 70 69 68 66 62 60 58 58 62 64 65 66 65 67 67 68 67 68 67 66 65 65 67 67 68 68 68 68 68 68 68 68 69 70 70
71 71 70 70 69 71 70 66 65 61 59 63 63 65 68 66 67 68 67 68 68 67 66 65 65 66 66 66 66 66 66 67 67 67 67 67 67 68
71 70 71 71 70 70 71 71 69 66 63 63 66 68 68 67 68 68 69 67 68 67 66 66 65 65 66 66 66 65 65 66 66 66 66 67 67 67
71 71 71 72 71 70 70 70 70 69 67 66 66 67 67 70 70 70 71 71 72 70 67 65 64 64 64 64 63 63 63 63 64 64 65 65 66 66
71 71 71 70 71 71 71 70 70 71 70 69 69 70 71 70 70 70 70 71 72 71 68 66 65 64 64 62 61 60 59 58 59 60 61 62 62 64
71 72 72 72 70 71 71 71 72 71 70 69 69 69 70 71 70 70 69 70 70 71 70 68 69 69 68 66 64 62 59 57 57 57 57 58 59 60
72 72 73 72 71 70 71 72 71 71 70 70 70 70 70 70 69 70 69 69 70 71 70 74 73 74 74 71 71 66 61 59 57 57 56 56 56 57
71 72 72 71 70 68 68 69 71 72 71 71 71 70 70 69 69 69 68 68 68 71 73 72 73 73 74 75 63 60 58 58 57 57 56 55 55 55
72 71 72 72 71 72 68 66 66 67 68 72 71 70 69 69 69 68 69 69 70 71 73 72 72 72 73 73 60 59 57 57 56 55 55 53 53 52
73 73 72 72 71 71 71 71 71 70 68 67 68 69 70 71 71 71 70 71 73 74 73 70 72 72 73 66 60 59 57 56 55 55 54 53 51 51
70 71 72 72 68 65 71 71 71 72 70 64 64 64 63 62 66 71 71 71 71 70 72 72 72 72 71 65 62 58 56 55 54 54 53 52 50 50
69 70 66 70 65 63 70 71 70 70 69 69 71 67 64 67 63 68 71 70 70 70 72 72 72 69 64 66 63 61 59 55 53 52 52 52 50 51
68 68 69 62 60 60 61 71 70 69 69 71 71 72 72 73 73 70 69 70 69 70 72 72 72 67 64 63 62 60 57 56 54 53 52 51 49 50
69 68 67 61 58 58 58 61 59 60 68 70 70 71 71 71 71 73 74 73 74 74 75 73 70 66 63 59 59 60 57 55 53 52 52 51 50 50
71 67 62 58 57 59 59 59 58 63 66 68 69 70 70 71 73 73 73 74 74 74 74 73 71 65 62 59 59 57 54 54 52 51 50 50 51 51
67 69 65 64 62 64 63 61 62 65 66 67 68 70 71 71 72 72 72 71 71 70 67 69 70 64 61 60 58 56 54 52 52 50 49 49 50 51
67 71 67 66 68 68 69 68 64 65 66 68 69 70 71 72 72 72 70 70 70 65 62 63 58 59 59 59 56 55 53 52 51 50 48 47 48 50
65 70 70 70 69 69 69 70 68 66 69 70 72 72 71 70 70 69 70 68 64 62 63 62 60 59 58 57 57 55 52 51 51 50 48 46 46 48
71 70 71 70 71 71 70 71 71 71 70 72 72 70 70 68 68 68 65 62 62 61 61 61 60 59 57 56 56 55 54 52 50 49 48 47 46 47
71 71 71 71 71 71 70 70 70 70 70 69 68 68 68 66 63 62 62 61 60 60 59 60 59 59 57 56 56 55 51 52 51 49 48 48 49 51
70 70 70 69 69 68 67 67 66 66 66 66 65 65 66 64 63 62 61 56 57 60 58 58 60 58 60 59 57 55 54 50 52 51 49 47 46 45
70 70 69 68 67 66 65 65 65 64 64 64 65 65 65 64 62 61 61 61 60 59 59 59 60 60 59 58 57 56 55 53 51 51 52 51 47 45
68 67 66 66 65 65 64 65 64 64 64 63 63 62 62 62 62 60 60 59 57 58 57 57 58 58 57 57 56 59 57 54 52 50 51 52 52 52

GFSNE_sfc_dewp_063.txt.gz
Dewpoint
69 68 69 69 68 68 66 61 59 57 58 61 63 64 66 65 66 66 66 68 68 67 66 66 66 67 67 68 68 68 68 68 69 69 69 69 70 70
71 70 68 69 69 69 69 66 64 60 59 61 62 64 68 68 68 68 68 69 68 67 66 66 66 66 67 67 67 67 67 67 67 68 68 68 68 68
70 70 70 69 70 69 70 70 68 64 63 64 65 68 68 67 69 70 71 70 69 68 67 67 66 65 66 66 66 66 66 66 66 66 67 67 67 68
70 70 70 70 70 70 69 69 68 68 66 65 66 68 68 70 70 70 71 71 72 69 67 66 65 64 64 64 63 63 62 62 62 63 63 64 64 65
70 70 70 70 70 70 70 70 70 70 69 68 69 69 70 70 70 70 70 70 71 69 67 67 66 66 66 64 62 61 58 58 58 59 59 60 61 61
71 71 71 71 70 69 70 70 70 70 69 68 68 68 69 70 70 69 70 70 69 70 70 68 68 69 69 66 64 61 58 56 55 56 56 56 57 57
71 71 71 71 70 70 70 70 70 69 69 69 68 68 69 69 69 69 68 69 69 71 70 72 73 73 73 67 62 61 58 57 55 55 54 54 54 55
70 70 71 70 70 67 67 68 70 70 69 69 69 69 69 69 68 68 67 67 67 71 73 71 73 72 73 63 61 59 58 57 56 55 54 53 53 53
71 70 71 71 70 71 68 66 66 66 68 71 70 70 69 69 68 67 68 68 68 71 73 73 72 71 69 61 59 58 57 56 55 55 54 52 52 52
71 71 71 71 71 71 71 71 71 71 69 68 70 71 71 71 70 70 69 69 70 72 74 70 71 72 65 59 58 58 56 55 54 54 53 52 50 50
70 71 72 72 68 64 71 70 70 71 68 63 64 64 63 62 65 69 69 68 69 71 72 72 71 72 67 62 58 57 55 53 53 53 53 52 50 50
70 70 65 69 64 62 69 70 70 70 70 70 69 66 63 66 62 68 70 70 69 69 71 71 71 70 65 65 61 59 57 54 52 52 52 51 49 51
69 69 70 62 60 59 60 71 70 69 68 69 69 69 70 71 72 69 70 71 70 70 71 73 72 68 65 63 61 59 56 54 53 52 51 50 49 50
69 69 68 59 58 58 59 61 60 61 68 68 68 69 69 70 71 72 73 71 72 72 73 73 71 68 64 60 59 59 56 54 52 51 50 50 50 50
71 67 62 58 55 57 57 60 59 64 66 65 66 67 69 70 70 71 73 74 74 74 74 73 73 67 64 62 59 57 55 54 52 50 49 49 49 50
66 68 66 63 61 63 63 61 63 64 65 66 67 68 68 69 70 71 72 72 71 70 66 63 72 66 62 61 59 56 54 53 52 50 49 48 49 51
68 70 71 68 68 68 67 67 65 64 65 66 66 67 68 69 70 71 71 71 70 66 63 61 58 60 60 59 57 56 54 52 52 50 48 47 47 50
66 70 70 70 70 70 70 69 68 65 66 67 67 68 68 70 70 69 70 70 69 66 63 62 58 59 59 58 58 56 53 52 51 50 48 47 46 47
71 70 70 70 70 70 70 70 70 70 69 69 69 70 70 70 68 68 68 65 63 62 61 61 60 60 57 56 58 55 55 52 51 50 49 47 46 47
71 72 71 70 70 70 70 70 71 71 71 70 70 70 70 69 66 66 66 63 62 60 60 61 60 60 58 57 56 56 51 53 51 50 49 48 49 50
68 71 71 71 71 71 71 71 71 71 71 71 70 69 68 66 64 63 63 58 58 60 59 60 60 59 60 59 57 56 56 50 52 52 49 48 47 46
70 69 70 70 70 71 69 69 68 67 68 67 64 64 64 63 62 61 61 60 60 60 60 60 61 59 59 58 57 55 56 55 51 52 52 51 48 45
68 69 67 66 66 66 65 65 66 65 64 63 62 62 62 62 62 61 61 62 61 60 59 57 57 58 57 58 56 56 56 56 54 52 52 52 52 52

GFSNE_sfc_dewp_069.txt.gz
Dewpoint
72 73 71 71 71 70 71 69 66 62 61 65 66 70 70 71 72 73 74 71 70 69 68 67 67 68 69 69 69 69 69 69 69 69 69 69 69 70
71 73 73 70 70 71 70 71 70 68 64 67 67 70 73 72 71 74 74 72 71 69 68 67 67 68 68 68 68 68 67 67 67 67 67 68 68 68
73 73 73 75 70 70 71 71 70 70 66 66 70 72 75 75 74 75 73 73 69 69 68 66 66 67 68 67 66 65 65 65 65 65 65 65 64 64
73 73 72 71 75 74 71 74 72 73 70 71 72 70 73 75 76 76 73 69 73 69 67 66 66 66 66 64 63 62 61 61 61 61 60 60 60 60
72 73 73 73 74 72 73 72 71 72 73 71 70 71 72 72 73 74 75 75 71 70 67 67 68 67 64 61 59 58 56 56 57 56 56 56 57 58
73 73 73 73 74 75 73 74 73 73 72 72 70 70 70 73 73 71 69 70 71 71 69 69 70 64 62 60 59 57 55 54 54 54 54 54 55 55
73 73 73 73 71 71 71 73 75 73 70 70 69 68 68 68 70 70 70 71 72 73 70 71 73 75 64 62 61 58 57 56 55 54 53 53 53 54
73 74 74 72 71 67 67 68 71 74 74 70 68 69 72 72 71 70 70 70 67 71 73 71 73 75 71 67 59 58 56 56 55 54 53 53 53 53
74 74 72 70 72 73 68 66 67 66 68 74 73 72 72 73 74 74 73 73 70 70 72 71 73 74 69 59 58 57 56 56 55 54 53 52 52 52
73 74 74 73 73 73 73 72 73 73 73 71 73 74 74 75 76 75 75 75 73 72 75 72 71 74 69 64 58 57 56 55 55 54 53 52 51 50
73 73 74 74 69 65 72 72 73 73 67 66 66 66 65 64 67 72 71 69 66 66 72 74 71 74 69 66 60 57 56 54 53 53 53 52 50 50
72 74 66 71 65 62 72 72 72 72 71 71 73 70 66 70 62 72 71 69 67 67 71 72 70 75 70 70 64 60 58 54 53 52 52 51 50 51
66 66 66 62 61 59 62 73 73 71 69 72 71 70 71 72 72 72 73 71 68 68 70 74 71 73 73 70 69 65 64 62 59 55 52 50 50 50
69 67 68 59 58 58 59 63 61 63 70 67 66 68 68 69 70 71 76 75 73 74 75 77 73 72 71 70 70 68 66 65 62 60 59 54 51 51
69 67 61 56 56 59 58 60 59 68 69 67 66 66 68 69 73 73 74 76 76 76 74 77 75 77 74 72 71 69 66 64 62 60 59 57 56 54
64 68 66 64 62 65 66 62 67 69 68 68 66 67 69 70 70 70 70 70 71 72 75 76 76 76 74 73 73 72 68 65 61 60 59 58 56 56
66 68 69 69 69 69 70 70 70 70 69 69 69 68 69 70 70 71 71 71 70 70 69 74 74 75 73 72 71 70 68 66 63 62 61 59 57 55
66 69 70 70 69 69 70 70 70 69 70 69 69 69 69 69 70 71 71 70 70 70 70 74 70 69 69 69 68 68 67 65 63 62 61 59 59 56
68 69 69 70 70 70 70 70 69 69 73 70 69 69 69 70 70 70 70 71 70 70 71 76 72 69 68 66 66 57 65 63 62 61 60 59 59 59
70 70 71 71 70 71 71 70 71 71 71 71 70 70 70 70 70 70 71 71 71 72 74 70 69 69 70 67 66 65 52 64 61 61 60 59 59 52
68 70 72 72 73 73 73 73 73 71 71 72 72 71 71 73 72 71 71 64 68 72 70 69 70 65 69 67 66 67 66 54 58 63 62 60 59 59
71 70 71 73 73 74 74 74 74 72 72 72 72 73 72 73 73 73 72 68 67 69 69 70 68 67 67 66 66 65 64 62 54 53 53 55 58 55
73 73 73 73 74 75 74 73 73 73 72 72 72 72 72 71 72 70 69 69 69 69 69 67 66 67 66 65 62 62 62 62 61 59 59 53 53 53

GFSNE_sfc_dewp_072.txt.gz
Dewpoint
71 71 69 67 68 68 68 66 63 60 61 66 64 69 68 68 71 71 71 72 71 70 68 68 68 69 70 70 69 69 69 69 68 68 68 68 68 69
67 72 72 66 68 67 66 67 66 63 61 65 65 68 72 70 71 72 71 73 73 70 68 67 67 68 70 69 68 67 68 67 67 67 66 66 66 65
71 71 73 73 67 65 66 66 66 66 63 62 66 70 75 74 73 73 70 70 65 69 68 67 67 68 69 67 66 66 65 65 64 63 63 62 61 61
72 72 71 68 73 73 68 72 69 70 66 70 70 68 72 74 74 75 70 66 69 68 67 67 67 67 65 64 63 62 61 60 59 59 58 58 59 59
72 72 72 72 72 68 71 68 67 69 69 68 67 67 68 70 72 74 72 73 66 68 66 68 68 64 63 61 59 57 56 56 56 55 56 56 57 57
73 72 72 72 73 74 72 73 72 70 71 68 66 65 66 70 70 66 64 65 67 67 68 70 69 63 61 59 58 57 55 54 54 54 54 54 55 55
73 73 73 71 70 71 70 74 75 71 67 65 65 65 65 65 69 65 65 64 69 67 68 66 70 67 62 61 61 58 57 56 55 54 54 53 54 54
73 74 74 72 71 68 68 68 71 74 73 69 66 67 73 71 68 65 66 64 64 67 68 64 66 72 73 70 62 58 57 56 54 54 54 53 53 53
73 72 71 68 72 72 69 67 67 66 67 73 73 72 73 73 74 73 74 70 69 68 69 64 66 70 74 60 59 58 57 56 54 53 53 53 52 52
72 72 74 73 72 72 72 71 72 72 73 71 72 72 73 74 76 75 75 75 72 69 73 66 67 66 74 70 58 58 57 56 55 53 53 53 52 51
72 73 74 74 69 64 72 72 72 72 65 65 65 65 64 64 67 70 66 64 61 60 64 62 66 67 73 72 66 57 56 56 55 54 53 53 51 50
71 74 66 70 64 62 74 73 72 71 68 68 72 70 68 71 64 73 70 65 61 59 65 64 65 65 66 73 71 61 58 54 54 54 53 53 51 52
64 62 63 61 61 59 62 74 72 69 66 68 66 65 66 68 71 73 74 70 63 60 61 68 65 66 66 69 74 71 67 64 61 57 52 53 51 50
68 64 67 57 57 58 60 63 60 63 64 59 58 59 59 61 62 67 76 76 73 75 75 77 69 67 67 66 69 80 73 69 68 65 63 56 51 52
68 66 59 56 53 57 58 60 60 68 65 60 59 59 59 59 69 72 75 79 78 77 74 77 74 74 71 69 70 74 76 70 68 66 64 62 61 59
64 66 65 63 61 64 66 63 67 68 66 64 61 60 61 59 60 63 66 66 67 67 76 77 78 77 73 71 72 73 75 70 68 66 64 63 62 60
66 68 68 68 68 68 68 68 68 68 68 67 66 64 63 61 60 63 64 65 64 64 63 66 78 78 76 76 73 73 72 74 69 67 66 63 63 62
67 68 68 68 68 68 67 66 67 66 68 68 67 66 64 63 62 63 64 64 65 64 64 65 74 74 72 73 71 73 75 72 75 68 67 63 63 63
69 69 69 68 68 69 68 68 67 67 72 67 67 66 65 65 63 63 63 65 67 67 67 66 68 72 70 67 69 63 70 75 67 66 64 64 63 62
69 70 70 69 70 71 70 70 69 69 69 69 68 68 67 66 65 65 65 67 66 68 68 71 74 73 71 69 68 69 56 70 67 65 64 64 61 55
69 69 70 71 72 72 72 73 73 71 71 70 70 70 69 68 67 67 66 61 64 68 72 72 72 66 74 74 70 68 65 54 62 67 66 63 61 60
70 70 71 71 72 74 74 74 74 74 73 73 73 72 73 73 71 70 69 68 69 70 72 74 73 72 71 70 68 68 67 65 57 55 55 57 61 57
71 72 72 73 73 74 75 74 74 74 74 73 74 74 74 73 73 72 72 73 73 72 72 71 69 70 70 69 66 67 67 65 61 60 60 54 54 54

GFSNE_sfc_dewp_075.txt.gz
Dewpoint
71 72 70 67 64 64 63 63 63 60 58 66 62 70 67 66 71 71 71 72 71 71 69 69 69 70 71 71 69 69 69 69 69 68 68 67 67 67
65 74 74 68 65 64 63 64 64 63 61 62 63 67 71 70 71 72 72 71 71 72 69 69 69 69 70 69 68 68 68 67 66 65 64 63 62 62
73 71 74 77 67 63 63 63 64 64 62 62 64 71 74 76 74 75 72 73 70 70 69 69 69 69 69 67 67 66 65 64 62 61 61 61 61 61
71 74 70 68 76 76 68 76 70 73 66 74 71 66 73 76 77 78 71 66 69 70 68 68 68 68 65 65 63 62 60 59 58 58 58 58 59 59
71 72 72 73 75 71 73 69 67 69 70 67 67 66 66 68 72 75 76 75 69 69 67 68 68 66 63 61 60 58 56 56 56 56 56 56 56 57
72 72 72 73 75 76 73 76 73 72 70 66 65 65 65 71 68 67 65 64 64 64 68 69 70 65 62 60 58 57 55 55 55 55 54 54 55 55
73 73 73 72 70 72 70 75 76 73 67 65 64 63 63 64 70 68 66 65 70 65 64 66 70 68 63 60 61 58 57 56 55 54 54 53 54 54
75 75 75 72 70 67 67 68 71 75 77 69 67 67 76 72 67 66 66 64 63 67 68 66 64 63 69 67 64 60 57 56 55 54 55 53 53 53
75 76 72 66 72 73 69 67 68 66 67 74 74 74 74 75 76 76 74 72 69 68 69 65 65 66 67 62 60 59 57 56 55 54 54 53 53 53
74 75 76 75 74 74 74 73 73 74 74 70 73 74 75 76 77 75 77 77 73 72 74 67 66 65 66 65 59 58 57 56 55 55 55 54 53 52
73 74 74 75 70 65 73 74 75 74 65 66 67 67 66 64 67 70 68 65 62 61 63 61 62 63 65 69 62 58 57 56 55 55 55 55 52 50
72 74 66 70 65 63 74 74 74 74 74 70 72 70 67 71 64 73 71 68 65 62 64 61 61 63 64 66 67 60 58 55 54 54 54 55 52 54
67 66 67 62 60 59 60 75 73 74 72 72 69 67 66 69 71 73 75 72 67 65 64 65 62 62 63 64 66 67 66 63 59 56 52 52 53 52
69 65 67 57 56 58 60 63 62 64 70 68 65 61 60 62 61 64 75 76 73 74 74 77 70 67 65 63 63 67 71 69 66 67 66 57 51 51
70 67 58 57 53 56 57 59 60 68 68 68 67 64 61 60 66 68 71 80 79 78 74 79 75 74 72 68 66 66 67 72 71 71 68 65 64 60
66 68 66 63 60 64 65 63 65 68 68 68 68 67 64 61 60 62 61 61 63 67 77 77 78 78 73 71 71 69 69 73 73 70 71 67 66 64
69 70 69 69 69 69 70 71 71 70 69 69 69 67 65 64 62 62 62 61 63 65 65 66 78 79 76 77 71 71 71 71 78 73 72 71 67 67
69 69 68 69 69 68 69 70 71 69 70 70 69 68 67 66 66 65 64 62 63 65 66 66 67 75 74 77 73 73 73 75 75 73 70 67 66 68
69 70 69 69 69 69 68 68 68 68 72 69 69 69 69 68 67 66 66 65 64 66 67 67 68 67 71 69 71 67 73 73 75 73 70 68 66 68
68 69 69 71 71 70 69 69 70 70 69 70 70 69 69 68 67 67 66 66 65 66 67 69 69 69 69 68 71 72 59 75 73 73 71 68 62 56
67 69 70 71 71 71 72 73 74 73 73 72 72 71 70 70 69 68 67 61 63 68 68 68 69 67 78 78 72 70 72 58 63 71 73 67 65 63
64 69 70 71 71 73 73 73 73 75 76 75 73 76 76 75 74 73 72 70 70 67 67 69 77 76 76 73 70 72 73 71 62 59 58 60 68 63
67 68 75 75 73 76 74 74 74 73 74 75 75 73 75 74 74 73 74 74 74 73 75 74 75 74 72 72 69 71 70 69 67 67 65 56 54 54

GFSNE_sfc_dewp_078.txt.gz
Dewpoint
75 74 74 70 72 70 71 71 69 67 67 71 69 73 73 75 73 74 74 73 74 72 70 69 69 70 71 70 69 69 69 69 68 67 66 64 64 64
72 74 75 68 74 71 70 72 71 70 66 68 71 74 75 73 75 76 76 73 71 72 71 69 69 70 70 69 68 68 67 66 65 64 63 63 62 62
76 75 74 75 72 74 73 73 71 72 70 71 72 77 76 77 75 76 77 75 74 71 72 70 69 70 69 68 66 65 64 62 62 62 61 61 61 60
74 74 74 71 75 76 74 74 74 74 73 71 73 72 72 73 77 77 76 70 73 70 69 68 68 68 66 65 64 61 60 59 59 59 59 59 59 59
75 75 74 75 75 74 76 75 73 73 74 72 71 73 74 73 74 76 77 77 74 70 68 68 67 66 64 62 61 58 57 56 56 56 56 56 57 57
75 75 75 75 75 75 74 75 73 74 73 73 71 70 71 72 75 73 73 72 71 68 69 69 69 66 63 61 59 57 55 55 55 55 54 55 55 55
74 74 75 75 72 73 73 75 75 74 72 71 70 70 70 73 73 74 72 73 72 73 70 74 71 67 63 61 61 60 57 56 55 54 53 53 54 54
73 75 75 73 71 67 67 68 72 75 74 73 72 71 72 74 74 73 72 70 68 73 72 70 71 71 69 63 62 60 58 56 55 54 53 53 53 53
75 74 73 68 72 73 67 66 66 66 68 72 71 72 72 73 74 74 73 73 72 72 72 68 71 71 72 65 62 60 58 57 56 55 55 54 53 53
74 75 74 73 74 75 75 74 72 72 71 69 70 70 71 72 74 73 73 74 74 74 74 70 71 71 72 68 62 60 58 57 56 55 55 56 54 52
73 73 73 75 70 66 73 73 75 75 69 66 67 66 66 64 67 73 71 70 67 67 68 67 66 69 70 68 61 59 57 56 55 55 55 55 54 51
70 72 66 69 64 62 71 72 72 72 74 74 71 68 66 68 64 70 71 70 69 68 68 66 67 68 66 72 65 59 57 55 54 54 54 54 54 53
70 69 69 62 60 59 60 73 71 71 70 73 72 71 70 72 73 72 72 71 69 69 69 70 66 71 70 68 71 65 61 60 56 54 52 51 52 53
71 70 70 59 57 58 59 61 61 64 71 70 70 69 69 68 66 66 73 73 72 72 72 72 72 71 70 69 68 70 68 67 62 63 60 54 50 51
72 69 63 59 55 56 56 57 58 66 68 68 68 68 69 68 68 66 67 75 76 75 74 75 73 73 73 71 70 69 69 70 67 68 69 62 59 57
65 68 67 65 62 64 65 62 62 66 67 67 67 68 69 69 68 66 63 61 61 71 76 76 76 75 73 73 73 71 71 70 73 72 71 67 65 64
63 71 71 71 70 70 69 70 70 69 68 68 68 69 69 69 68 67 64 62 64 64 63 72 76 76 76 74 72 73 73 73 74 73 71 69 69 68
66 70 71 71 71 70 70 69 69 69 71 70 70 69 69 69 68 68 67 65 64 65 64 64 70 74 75 75 72 72 74 73 74 73 73 69 68 70
64 68 70 71 72 73 73 71 70 70 72 71 71 71 70 70 68 68 67 67 68 68 67 67 70 70 68 66 71 67 72 73 73 73 72 70 68 69
64 65 67 69 69 70 73 72 71 71 72 71 71 70 70 70 70 69 69 68 68 67 66 67 69 67 66 64 65 72 62 74 73 72 71 69 61 59
61 65 67 68 69 70 71 73 73 72 73 73 74 72 73 72 70 69 68 62 64 68 67 67 67 63 69 75 70 70 72 59 66 72 72 70 64 63
61 62 63 64 70 71 71 74 74 73 73 73 74 74 76 75 72 72 72 71 70 71 71 72 71 73 72 71 69 70 71 68 60 61 61 63 66 64
66 67 68 70 73 73 73 74 73 73 73 73 73 73 74 73 73 74 72 73 71 71 71 71 72 72 71 71 68 71 71 72 67 65 65 60 58 56

GFSNE_sfc_dewp_084.txt.gz
Dewpoint
69 69 68 67 66 69 68 67 62 60 61 66 65 68 71 71 71 70 71 71 70 69 69 68 68 69 70 69 69 68 67 66 65 64 64 63 63 63
67 67 67 69 65 69 69 68 67 63 61 66 68 71 71 70 71 71 72 71 70 69 69 68 68 68 70 68 67 66 65 65 64 64 63 62 61 61
68 70 69 70 69 70 69 68 68 68 65 66 70 69 68 67 68 70 72 73 72 69 68 68 67 67 68 67 66 65 63 62 62 63 62 61 60 59
69 69 69 69 69 70 70 69 69 69 67 66 67 67 67 68 69 68 70 72 73 70 67 66 66 66 66 65 64 63 61 60 60 60 61 60 59 58
69 69 70 68 68 69 69 68 69 70 70 69 68 69 69 67 68 69 69 71 69 68 66 66 66 65 65 64 62 60 58 57 57 57 58 58 58 57
70 70 70 70 69 68 69 68 68 69 68 68 68 67 67 68 70 70 68 69 69 68 68 67 66 66 66 63 62 61 57 55 55 55 56 56 56 57
71 72 71 72 70 68 70 69 69 69 68 68 68 68 69 69 69 70 69 69 68 67 69 69 68 68 68 65 65 64 59 56 55 54 54 54 54 54
69 70 70 70 70 68 68 68 68 69 68 68 68 68 68 69 70 70 68 66 64 69 69 68 69 69 69 68 66 63 60 57 56 55 54 53 53 53
71 70 69 69 69 70 69 66 66 66 67 69 68 68 67 68 68 66 66 66 66 68 69 69 70 70 70 70 64 62 60 58 56 55 54 54 53 52
72 71 70 70 70 70 69 70 70 68 67 67 68 68 68 68 66 65 64 66 69 70 71 68 67 67 68 69 65 63 60 58 56 55 54 53 52 51
68 71 72 72 68 63 68 70 70 71 68 63 63 63 63 62 64 68 67 67 67 66 68 68 66 65 64 64 66 61 59 57 56 55 54 53 51 52
70 69 65 68 64 63 68 69 68 69 70 70 71 65 63 65 62 66 67 66 66 66 67 66 66 65 63 64 66 62 59 56 54 54 54 53 51 54
68 70 69 62 59 59 60 70 69 68 67 69 70 70 71 70 70 68 68 68 68 67 67 67 66 65 64 65 67 64 60 59 57 54 52 51 50 52
71 71 71 60 55 55 57 59 59 60 66 66 67 68 69 70 70 70 70 69 69 68 68 68 67 66 65 64 65 66 62 60 58 58 57 53 50 50
67 65 59 56 55 59 59 57 57 62 63 64 64 65 66 67 68 69 70 71 70 70 70 69 68 67 67 66 65 66 66 66 61 60 59 58 57 54
62 62 61 61 59 62 63 66 63 64 65 66 66 66 66 65 65 66 67 67 66 66 67 69 69 69 67 68 68 68 68 68 66 63 63 63 61 58
51 57 60 60 61 64 68 69 69 68 66 66 66 67 66 65 65 65 66 66 66 66 66 66 69 70 70 69 68 69 69 69 70 68 65 65 66 64
51 54 56 58 59 60 63 67 69 68 69 69 68 68 67 66 65 65 65 65 65 66 66 66 64 66 70 71 70 69 70 71 71 70 68 67 68 68
52 54 56 56 56 58 62 65 68 71 71 70 70 69 69 67 66 66 66 67 67 67 67 67 63 61 61 61 64 65 70 70 70 68 70 70 69 69
49 50 51 53 55 58 59 61 63 66 69 71 71 70 70 70 69 69 68 68 68 68 68 66 65 65 63 63 62 65 59 71 69 70 68 65 62 57
50 52 53 55 56 58 60 63 65 66 66 68 70 71 71 70 70 70 69 62 65 69 68 68 68 63 67 67 66 66 68 56 63 70 68 66 63 62
46 48 51 57 59 60 61 64 65 66 68 69 70 70 70 70 70 69 69 66 67 68 69 70 68 66 65 66 66 65 65 66 61 59 56 59 64 63
45 48 51 51 54 57 63 65 66 67 68 69 69 70 70 70 70 70 69 69 69 69 69 68 68 68 68 67 66 67 66 67 65 64 63 57 57 56

GFSNE_sfc_dewp_087.txt.gz
Dewpoint
68 68 68 67 66 68 68 67 62 59 60 65 67 69 70 70 70 71 71 70 70 69 68 68 68 69 70 70 69 68 67 66 65 64 63 63 62 61
67 67 66 69 67 69 69 68 66 62 61 65 68 71 71 68 69 70 70 71 70 69 68 67 67 68 69 69 68 67 65 64 64 64 63 62 61 60
68 68 69 69 70 70 69 68 68 67 64 65 69 68 68 67 68 68 70 70 72 69 66 67 66 67 68 68 67 66 65 63 62 62 62 61 59 58
68 68 68 69 68 69 70 68 68 69 67 66 67 67 67 68 68 68 70 71 70 68 65 66 66 65 66 66 65 64 63 61 61 61 61 61 59 58
68 69 68 68 68 67 68 68 68 69 69 68 67 68 69 67 68 70 69 69 68 68 65 66 66 65 64 64 63 61 59 58 58 59 59 59 59 58
70 69 68 69 69 68 68 68 68 68 68 68 67 67 67 69 70 70 68 68 68 67 67 67 67 66 65 64 63 62 59 56 55 56 56 57 57 57
70 71 70 70 70 69 69 68 68 68 68 67 67 67 67 67 67 69 68 68 68 66 67 69 68 68 68 66 67 66 63 59 56 55 55 54 55 55
69 69 70 70 69 67 67 67 69 69 68 67 67 66 66 67 68 68 67 65 62 66 68 67 69 69 70 69 67 65 63 61 58 55 54 54 54 54
70 70 70 70 68 69 67 66 66 65 66 69 68 68 67 68 67 65 64 64 64 65 68 66 69 69 69 69 65 64 62 61 59 56 55 54 53 53
70 71 70 70 69 69 69 69 69 69 68 67 69 69 69 69 68 66 65 64 66 68 69 67 67 66 67 67 64 63 62 60 58 56 55 53 52 51
68 69 71 71 68 64 68 69 69 69 67 62 63 63 62 62 64 67 66 65 66 66 69 67 66 66 65 65 65 61 59 58 57 56 55 53 51 50
69 69 64 66 63 61 68 69 69 69 69 69 70 66 63 65 62 65 68 66 67 67 68 67 65 65 63 64 66 66 63 58 55 54 54 53 51 52
69 69 70 63 57 56 56 67 68 67 68 68 69 69 70 70 70 66 67 68 68 68 68 67 66 64 64 64 66 67 64 62 59 57 52 51 50 52
67 69 68 59 55 55 56 58 56 59 63 65 66 66 67 68 69 70 70 69 69 69 69 68 67 66 65 63 64 66 65 63 61 61 59 54 50 50
62 60 56 54 53 56 58 58 57 63 64 65 66 66 66 67 67 67 69 71 70 69 70 69 68 68 66 66 65 65 65 66 62 61 60 59 57 54
51 49 52 55 56 57 59 62 65 65 65 66 66 67 68 67 67 66 66 66 67 68 69 70 70 69 68 67 67 66 67 66 66 64 63 62 61 59
45 49 54 54 53 55 57 63 67 68 67 67 67 67 68 68 67 67 66 65 65 65 65 66 68 68 68 68 67 67 67 68 69 68 64 65 64 64
46 50 50 51 54 55 56 56 58 62 66 69 69 68 68 68 68 68 66 65 65 65 65 66 66 64 66 68 67 67 68 68 69 69 67 67 68 68
48 49 50 50 52 53 53 55 56 60 65 68 69 70 70 69 68 68 67 66 65 65 66 66 66 65 64 63 64 63 68 68 69 67 69 68 68 69
47 47 49 51 52 53 53 55 56 58 59 62 66 68 69 70 69 69 68 68 68 67 67 68 68 67 64 65 64 64 57 69 68 69 68 68 66 57
42 43 45 46 48 52 56 58 59 61 61 62 64 66 68 69 69 69 69 62 64 69 68 68 69 64 68 66 66 66 67 57 62 68 68 66 65 64
42 43 44 45 47 51 52 54 56 58 61 64 65 66 68 69 68 69 69 69 69 69 69 69 69 67 65 66 66 66 65 66 59 59 59 61 66 64
41 42 43 44 45 47 50 49 50 52 55 59 60 60 65 67 67 67 68 68 68 68 67 67 69 68 67 66 65 67 66 66 65 62 62 56 57 56

GFSNE_sfc_dewp_093.txt.gz
Dewpoint
72 73 70 69 71 70 70 70 67 63 64 69 70 72 70 70 72 72 74 71 69 69 67 67 68 69 70 71 70 69 67 66 64 63 62 62 61 60
70 72 72 69 70 72 71 70 70 67 63 68 69 71 72 70 70 72 72 71 70 68 66 66 67 68 69 70 70 69 67 66 64 63 63 62 60 60
72 72 72 74 69 70 72 71 69 69 65 66 69 71 74 73 71 72 70 73 69 68 67 65 66 67 68 68 68 68 68 66 65 63 63 63 61 60
72 72 71 69 73 73 70 74 71 72 68 69 69 67 71 73 74 74 70 67 70 68 67 65 65 66 65 65 65 65 65 65 64 63 63 63 63 61
72 73 72 72 72 69 71 69 68 69 70 68 68 69 70 70 72 72 73 73 67 67 65 64 66 67 65 64 63 62 61 61 61 61 61 62 62 62
73 73 73 72 73 74 72 73 71 71 70 70 69 69 70 72 72 70 69 69 70 69 67 65 66 68 66 65 64 64 60 59 59 59 58 59 60 61
72 72 73 72 70 70 70 74 74 73 68 68 67 67 68 67 68 68 70 70 71 70 68 67 65 66 66 65 68 67 64 61 59 58 57 56 56 57
72 74 73 71 71 67 66 67 71 74 73 68 67 68 72 71 69 69 69 68 66 67 71 66 65 66 66 64 65 65 63 62 61 59 57 56 55 56
74 75 74 69 71 73 68 66 66 65 67 74 72 73 73 75 75 74 73 71 70 68 70 66 65 65 67 63 65 64 62 61 61 59 59 57 55 54
73 74 74 74 74 73 74 73 74 74 75 70 72 73 74 75 76 74 74 74 72 69 73 68 66 66 68 68 65 64 62 61 60 59 57 56 54 52
71 72 73 73 61 61 72 73 73 73 67 64 65 64 64 63 65 70 70 68 66 66 69 69 68 67 69 68 69 65 62 60 59 58 58 56 53 51
69 67 61 57 55 57 66 71 71 72 72 73 73 70 67 71 63 70 70 68 67 67 69 68 67 68 67 67 68 69 69 60 57 56 56 55 52 63
54 55 54 55 53 53 56 65 65 63 63 65 67 69 70 71 70 72 73 71 69 68 68 71 70 69 68 68 68 69 69 69 70 67 55 53 52 58
49 50 51 49 48 49 54 57 55 57 58 58 59 60 61 62 63 64 72 73 72 73 74 77 70 69 69 68 67 67 68 69 70 70 70 62 52 52
47 48 50 48 48 51 54 55 55 57 57 57 57 58 58 59 65 68 69 74 75 74 72 74 73 73 71 70 69 69 68 69 69 69 70 70 69 69
45 45 49 50 52 53 53 54 55 57 57 57 58 59 60 60 61 63 63 63 64 66 72 74 75 75 72 70 70 69 70 68 69 70 70 70 70 70
45 46 45 46 47 48 49 51 53 53 53 54 55 56 57 57 59 61 63 64 64 65 65 65 73 75 73 74 69 69 69 69 69 70 72 70 70 70
44 42 42 43 43 44 46 47 49 52 53 55 56 56 56 57 58 59 61 62 65 66 66 67 68 68 67 70 69 69 68 69 69 71 72 70 69 69
40 41 41 42 43 44 45 45 46 48 55 51 52 54 56 57 57 57 57 58 59 61 63 65 67 68 67 65 67 63 68 68 69 69 69 69 69 70
38 39 40 41 42 43 43 43 44 45 45 47 50 49 51 53 55 57 59 60 62 63 65 66 65 68 69 66 67 68 57 70 69 68 68 68 69 65
35 36 37 38 38 39 41 42 43 44 45 46 46 46 47 47 49 51 54 53 56 61 62 64 66 64 71 72 68 68 70 57 65 70 70 68 68 68
34 35 35 36 36 38 39 39 40 40 41 42 44 45 46 47 49 52 54 55 57 58 62 63 65 70 69 69 66 67 68 69 65 58 58 61 71 67
34 34 35 35 35 36 36 36 36 37 38 38 40 42 45 50 49 49 50 53 55 56 56 58 61 68 68 69 65 66 68 69 69 69 69 58 57 57

GFSNE_sfc_dewp_096.txt.gz
Dewpoint
70 71 69 66 66 68 68 67 65 60 61 68 64 71 68 68 70 69 70 71 70 69 67 66 68 70 71 72 72 71 69 67 66 64 63 62 61 60
67 70 71 65 66 65 65 65 66 64 61 65 65 68 70 68 69 69 69 70 71 68 67 67 67 69 70 71 71 71 69 68 66 65 64 64 62 60
72 71 71 72 66 63 65 65 64 63 62 62 66 68 73 72 71 71 69 68 64 68 68 68 67 68 69 69 69 70 69 68 67 65 65 65 64 62
70 71 71 66 71 71 66 71 69 69 65 70 70 66 71 72 72 73 68 64 65 67 66 66 66 66 66 66 66 66 66 66 66 65 65 65 65 64
70 70 70 70 71 67 68 66 64 64 66 64 64 64 66 68 70 73 71 71 66 68 66 66 66 67 66 64 63 62 61 61 62 63 63 63 64 64
71 70 70 70 71 72 71 71 70 69 69 65 64 62 62 69 68 64 62 63 65 64 67 66 66 67 66 65 64 64 61 59 59 60 60 60 61 62
71 71 70 70 70 70 69 73 74 69 65 62 62 61 61 63 67 64 64 63 67 65 63 66 62 60 60 65 66 68 65 63 60 58 59 58 58 59
72 73 72 71 70 68 67 67 70 75 72 68 65 65 72 70 67 66 66 64 64 65 67 63 62 61 60 60 66 65 64 63 61 60 58 58 57 57
73 73 70 65 71 71 68 66 67 66 67 75 71 71 74 76 74 73 73 70 68 66 68 64 65 64 62 59 66 65 64 62 61 60 59 58 57 56
73 73 73 73 63 68 72 70 71 72 75 71 72 73 75 75 77 74 75 75 72 69 71 64 64 64 65 64 64 65 64 62 61 60 59 57 55 54
70 66 68 67 57 57 71 72 72 71 67 64 64 64 63 63 66 70 69 66 64 64 66 63 62 63 64 64 64 65 63 62 60 59 59 57 55 53
69 66 57 56 52 53 65 68 70 71 70 69 70 69 68 72 64 73 71 68 67 65 68 66 66 66 65 65 64 65 66 60 58 57 57 57 54 64
58 58 57 51 49 49 52 61 63 61 60 62 64 65 66 68 67 72 78 76 70 68 68 71 68 68 71 68 67 65 64 65 66 66 56 55 53 59
49 49 50 48 48 49 51 54 53 55 57 60 60 60 61 61 61 62 70 69 68 72 73 76 72 71 71 68 67 67 67 67 67 67 68 63 53 53
47 45 48 48 48 51 52 54 54 57 58 58 59 59 60 61 64 66 69 74 74 73 68 75 73 74 72 72 70 70 68 68 68 68 68 68 69 69
46 45 47 49 50 52 52 54 55 53 53 52 52 54 55 55 55 56 56 58 59 60 69 71 75 76 71 75 76 71 72 70 70 69 69 69 71 70
44 44 43 43 43 44 45 47 48 50 50 50 51 52 52 52 52 53 53 54 55 57 58 60 70 73 69 74 68 68 70 69 70 70 77 71 70 70
43 41 41 42 42 43 43 44 45 48 48 51 50 49 49 50 52 54 54 54 54 54 55 57 60 61 62 66 66 65 66 66 68 71 72 69 69 70
40 40 41 42 42 43 43 42 42 44 50 45 46 46 48 47 46 47 48 50 52 54 55 56 57 60 63 61 62 60 63 63 66 69 73 74 73 70
36 37 38 39 39 40 40 40 41 42 42 43 44 45 46 45 45 45 46 47 48 50 51 52 53 55 56 58 61 64 56 68 65 65 66 68 70 64
35 36 37 36 37 38 39 40 41 40 40 41 42 42 43 44 45 45 45 46 50 51 49 51 54 58 60 63 62 63 64 57 64 68 69 69 68 68
35 36 36 37 38 39 38 38 38 37 37 37 38 39 40 41 42 44 44 45 46 46 49 51 54 55 54 54 58 63 64 64 62 58 59 63 70 67
36 36 37 38 37 37 38 37 36 35 36 36 36 37 37 37 39 40 41 41 42 45 48 48 49 51 51 52 54 57 64 65 62 63 65 60 59 58

GFSNE_sfc_dewp_102.txt.gz
Dewpoint
73 75 75 71 69 70 71 70 67 64 60 62 65 70 68 69 68 73 74 72 70 70 67 67 69 69 70 71 72 72 72 71 70 69 67 66 67 63
71 74 75 73 73 70 71 69 69 67 65 66 66 71 68 71 70 75 74 71 70 71 68 70 71 70 69 70 71 71 71 71 70 69 67 66 66 66
74 73 73 75 73 72 71 69 70 70 68 70 69 70 70 70 73 74 75 74 72 69 69 70 71 70 68 69 69 69 69 69 69 69 68 67 66 66
73 74 73 68 74 75 74 73 73 73 71 69 71 71 72 74 75 76 73 68 71 69 68 68 71 68 67 66 67 66 66 66 67 67 68 68 67 66
73 73 73 73 73 73 73 73 71 70 71 70 69 70 69 69 70 72 73 71 71 67 67 67 67 65 65 64 64 63 62 61 62 63 64 66 66 66
74 74 74 73 73 73 72 73 71 72 71 71 71 70 70 70 72 69 65 72 71 68 67 67 69 67 65 63 63 63 61 60 59 60 61 61 63 64
74 73 73 71 70 70 72 74 73 73 71 69 68 68 70 70 70 71 71 70 70 72 69 70 68 68 67 66 67 67 64 62 60 59 59 59 59 61
74 75 76 71 71 68 67 67 70 72 72 73 72 70 71 73 72 72 72 70 69 74 72 69 70 69 70 69 67 66 66 64 62 61 59 58 58 59
73 74 73 70 65 66 70 68 67 66 67 72 71 71 72 73 74 73 73 73 71 71 71 69 70 70 71 68 65 65 65 64 63 61 60 59 58 57
74 74 73 64 57 57 65 71 73 74 73 71 71 73 75 75 74 73 73 73 72 72 73 70 70 71 72 73 66 66 64 65 63 61 60 58 56 56
69 59 65 59 54 53 64 67 69 72 68 65 65 63 62 62 65 70 69 70 68 69 71 72 71 69 71 72 71 64 62 61 60 60 60 58 56 55
66 60 53 51 50 51 57 60 64 65 62 59 61 63 65 68 64 69 70 70 70 68 72 69 66 67 64 70 70 71 73 65 58 58 58 57 55 60
57 55 54 50 48 49 50 55 61 56 57 57 60 62 66 68 67 72 74 72 70 69 68 66 66 67 69 68 71 70 70 69 72 70 61 55 55 58
55 57 53 47 46 48 50 53 52 54 58 59 58 56 55 57 57 65 68 69 70 70 70 71 69 69 68 67 66 69 69 70 72 70 71 67 58 53
51 48 48 46 46 48 51 53 53 59 59 55 54 55 58 58 57 58 61 63 63 64 59 68 70 67 68 67 65 66 65 63 67 72 71 71 71 71
46 46 50 51 51 50 52 59 59 59 57 54 52 52 53 53 54 56 53 52 51 53 60 61 60 60 57 59 61 61 62 62 65 69 69 71 72 72
41 49 55 53 51 50 51 50 52 51 49 49 50 50 50 50 50 51 51 52 52 50 50 53 57 56 56 59 57 57 59 57 57 61 66 65 65 67
46 53 52 52 50 50 49 48 48 48 48 47 47 46 47 47 46 48 49 49 49 50 50 51 50 50 53 54 58 54 53 55 57 59 61 60 59 63
43 53 52 50 49 49 47 47 45 49 53 47 48 47 45 45 43 43 43 44 44 45 45 47 48 50 48 47 50 52 50 50 53 54 55 56 61 63
46 47 48 48 47 46 46 44 45 47 44 45 44 44 43 43 42 42 42 41 41 41 41 43 44 45 41 42 43 44 50 53 52 52 51 53 56 57
44 44 45 44 45 46 46 47 48 44 45 44 43 42 42 41 41 40 40 41 41 41 40 40 42 48 43 43 41 40 42 46 48 47 49 52 50 49
43 44 45 46 47 47 46 46 43 42 42 40 40 40 40 39 39 38 38 38 38 38 38 38 40 40 41 40 39 40 39 40 44 46 48 50 50 50
46 45 48 48 46 45 45 42 39 39 39 39 38 38 38 37 38 37 37 37 37 37 37 37 38 39 38 38 39 38 39 38 39 40 40 45 48 47

GFSNE_sfc_dewp_105.txt.gz
Dewpoint
64 70 71 72 69 69 69 65 67 63 62 63 63 68 68 69 68 68 68 68 71 71 70 68 68 69 69 69 70 71 72 71 71 70 68 67 67 66
64 71 69 70 69 69 68 68 67 65 64 65 66 68 68 68 68 70 68 70 71 71 70 68 68 69 69 68 69 70 70 70 70 70 69 67 66 67
70 70 69 69 70 71 69 69 68 67 65 67 67 67 67 67 65 69 71 71 71 69 68 67 66 69 69 68 67 68 69 69 69 69 69 69 67 66
70 70 69 69 69 69 70 69 67 68 66 64 68 69 67 69 70 70 72 72 70 70 67 66 67 68 67 66 65 65 65 66 66 67 68 68 68 67
70 70 70 70 69 68 68 67 69 70 69 68 67 67 67 68 68 68 67 70 70 69 66 65 65 66 66 64 63 62 61 61 62 62 64 65 67 67
72 71 71 70 69 69 69 69 69 67 69 68 68 67 68 69 70 69 70 71 69 70 69 68 68 67 66 64 63 63 61 60 59 60 60 61 63 65
72 71 71 71 70 68 69 69 69 68 68 67 67 67 67 68 69 70 70 70 70 70 70 68 68 69 69 68 69 67 64 62 60 59 58 59 59 60
71 70 71 66 66 67 67 67 67 67 67 68 68 67 68 69 70 70 70 69 68 71 70 69 70 69 70 72 69 68 67 63 62 60 59 58 58 58
70 70 69 61 59 61 66 68 68 66 67 68 67 68 69 69 70 70 69 70 69 70 71 69 70 69 71 71 68 66 65 65 63 61 60 59 58 57
66 67 62 56 54 53 62 67 69 66 66 66 68 68 68 68 68 69 70 70 71 70 70 67 69 67 68 68 67 65 63 63 63 61 60 58 57 55
55 55 51 49 52 54 56 57 62 64 62 59 59 60 60 60 62 65 65 67 67 67 69 69 69 65 63 66 68 65 64 62 59 59 59 59 56 54
58 53 52 46 50 51 47 51 56 59 55 52 54 58 60 62 62 66 67 66 66 65 69 67 64 63 64 66 66 70 69 64 60 60 60 58 55 60
54 51 49 49 47 48 49 47 53 53 52 55 57 55 53 55 56 60 63 67 66 65 64 65 64 65 66 65 67 68 68 68 68 69 62 61 58 59
47 51 44 47 46 47 48 51 51 53 55 53 52 52 52 52 53 56 57 53 56 57 58 62 64 61 60 61 63 62 63 66 67 66 66 66 63 57
46 47 48 48 49 50 52 53 53 55 52 48 48 49 50 50 49 49 48 48 49 51 51 54 51 51 51 51 51 54 58 58 60 60 62 63 67 70
41 41 47 51 51 51 49 48 48 48 47 47 47 46 46 46 45 47 48 48 50 49 49 49 46 47 47 49 51 51 54 54 54 53 53 55 58 62
40 46 48 47 45 46 46 46 46 46 44 43 44 44 44 43 42 43 43 43 44 43 42 42 45 48 48 49 51 49 48 48 48 49 50 53 55 56
40 46 45 46 45 45 44 44 45 47 45 44 44 44 43 42 41 41 41 41 40 39 39 40 41 43 39 42 50 43 43 38 40 47 49 49 50 51
42 46 44 44 43 43 43 43 42 43 42 42 43 42 41 40 40 39 39 38 38 38 39 39 39 40 37 36 37 46 39 39 40 40 41 42 42 42
40 43 43 43 43 43 43 42 42 41 42 42 41 41 39 38 38 38 38 37 37 37 36 37 37 37 36 36 37 39 44 40 39 39 39 38 40 46
42 42 42 43 43 43 43 42 42 40 40 40 39 39 38 38 37 37 37 38 38 36 35 35 36 43 39 38 36 36 37 42 42 39 38 38 38 39
43 42 43 43 43 43 42 41 40 39 38 38 37 37 37 37 36 36 36 36 36 36 36 37 38 38 37 36 36 36 37 37 40 44 46 45 39 37
41 41 42 42 42 42 40 39 38 38 38 38 37 36 36 36 36 37 37 37 37 36 36 36 37 37 36 36 36 36 36 37 37 37 37 43 44 45

GFSNE_sfc_dewp_108.txt.gz
Dewpoint
64 69 70 70 69 67 68 65 66 62 62 64 63 65 68 69 69 68 67 67 68 68 68 68 68 68 69 69 69 70 71 71 71 71 70 68 68 68
64 68 68 69 69 69 68 67 68 65 62 66 64 65 68 69 68 68 66 69 69 68 68 67 67 68 68 69 68 68 70 70 70 70 70 69 67 67
69 69 69 68 69 70 69 69 67 67 64 66 67 67 66 66 67 67 69 69 71 68 66 65 65 66 67 67 67 67 67 68 68 69 69 70 68 67
68 69 69 69 68 69 69 68 68 68 66 63 66 68 67 68 68 69 70 70 70 68 66 64 65 64 64 65 64 64 64 64 65 66 68 68 69 68
70 69 69 69 69 69 67 66 68 68 68 67 67 68 67 69 69 69 70 70 71 70 67 66 66 65 64 63 62 61 59 59 60 62 63 65 66 68
71 71 70 70 69 68 68 68 68 67 67 66 66 66 68 69 69 69 70 70 70 71 69 68 67 67 66 65 64 64 62 59 57 58 59 60 62 64
71 71 70 69 67 68 69 68 68 67 67 65 65 66 66 67 67 69 69 70 70 70 70 69 70 70 70 69 69 67 62 61 59 58 57 57 58 59
70 71 67 65 66 64 65 66 67 66 65 66 66 66 66 67 69 69 69 68 67 70 70 70 70 70 70 70 66 65 62 62 61 60 59 57 57 57
68 69 65 57 57 59 64 67 67 66 66 66 66 66 67 68 69 68 67 67 68 69 70 69 69 68 67 66 64 64 62 61 61 60 59 60 59 58
65 61 56 52 53 57 59 62 66 64 62 61 61 64 64 65 64 64 65 67 69 70 69 66 68 67 65 64 63 63 62 61 61 60 59 57 56 56
54 50 47 46 52 54 50 54 58 59 56 55 56 57 58 59 61 64 66 65 64 66 68 67 66 65 63 64 66 62 62 61 59 59 59 58 55 55
55 53 52 45 49 50 44 46 49 52 52 54 55 54 54 54 58 61 63 63 63 63 62 63 63 63 63 66 65 67 63 60 60 59 59 58 56 65
52 51 46 50 48 47 49 47 50 52 53 54 52 51 50 51 51 52 56 58 57 58 54 58 53 54 58 62 64 56 55 58 61 61 57 53 55 59
46 46 44 48 48 49 50 51 52 54 50 48 48 47 48 48 49 49 49 49 50 52 48 48 51 50 51 51 52 51 53 57 52 50 50 51 52 56
42 45 48 47 48 49 51 51 50 47 46 45 45 45 46 46 44 46 46 46 49 45 42 44 45 47 47 47 48 51 51 50 45 41 45 51 53 57
41 43 50 51 50 49 46 47 47 46 44 43 43 44 44 41 41 43 41 41 43 40 40 42 41 47 43 40 48 48 48 46 38 39 42 43 43 47
41 47 45 44 44 44 45 46 45 43 42 43 43 42 42 41 40 41 40 39 38 38 39 38 39 41 40 40 44 40 41 37 38 40 40 39 40 41
42 45 45 44 43 43 42 42 42 42 42 42 42 41 40 39 38 37 37 37 36 37 36 36 37 35 35 36 44 39 38 37 38 39 38 38 37 38
42 45 42 42 42 42 41 41 40 41 41 41 40 38 38 38 37 36 36 36 35 36 36 36 35 36 35 34 36 45 37 36 36 36 37 37 37 37
42 42 42 42 42 41 41 41 40 39 39 39 38 38 38 37 36 36 37 36 36 36 36 36 36 37 37 36 36 37 42 37 37 37 37 37 39 44
41 41 42 42 42 41 40 40 39 38 37 37 37 36 37 36 36 36 37 37 37 36 36 36 37 40 38 37 35 35 36 41 41 37 38 37 37 37
41 42 42 41 41 40 39 39 38 37 37 36 36 36 36 36 36 37 37 36 35 35 34 35 36 36 35 34 34 34 34 35 38 41 42 40 38 36
41 41 42 41 40 39 38 39 38 37 37 36 36 36 36 36 37 37 35 35 35 35 35 35 36 36 35 35 37 35 35 35 36 36 36 41 43 43

GFSNE_sfc_dewp_111.txt.gz
Dewpoint
65 66 69 69 67 66 67 65 65 61 62 64 62 64 67 68 68 69 68 67 67 68 67 67 66 68 69 69 69 69 70 71 71 71 71 70 69 69
64 67 68 69 69 68 68 66 67 64 62 65 65 64 66 68 69 68 66 68 68 68 67 65 66 67 68 68 68 68 68 69 70 70 70 70 69 68
69 69 68 68 68 69 68 68 67 66 64 64 67 66 66 66 67 69 70 70 71 68 67 65 65 66 66 66 66 67 67 67 67 68 69 70 69 69
68 68 68 70 68 68 68 68 67 67 66 63 65 67 67 68 68 68 70 70 70 69 66 66 65 65 65 65 64 64 62 63 63 64 66 68 69 69
70 69 69 69 68 69 67 66 67 68 67 66 66 67 67 68 69 69 70 70 71 70 68 67 66 66 65 64 63 62 59 59 59 60 62 64 66 67
70 71 70 70 69 68 69 68 68 68 66 65 65 65 66 68 68 68 69 70 70 70 70 68 67 68 67 65 65 64 60 58 58 58 58 59 61 63
71 71 70 69 68 67 69 69 68 67 66 65 65 65 66 66 66 68 68 69 69 70 70 70 70 70 69 66 67 66 63 62 60 59 59 57 57 58
70 68 67 66 64 63 64 65 66 66 65 65 65 65 65 66 68 68 67 66 65 70 69 69 70 69 67 66 64 63 62 61 61 60 59 59 58 58
70 69 63 55 58 61 64 64 63 64 65 67 66 66 66 68 64 64 64 65 65 68 69 67 68 67 66 64 62 62 62 60 60 59 59 58 57 56
64 63 59 52 53 56 59 65 62 58 58 58 57 59 60 61 61 62 63 64 66 67 64 64 66 64 65 64 62 60 60 58 59 58 55 55 56 56
56 56 50 45 51 53 48 53 54 52 54 57 57 56 56 56 58 61 62 61 61 64 52 60 64 61 63 64 65 55 56 56 56 54 54 52 52 55
55 52 52 47 49 50 44 46 47 50 53 52 51 52 52 51 54 54 56 55 60 53 49 56 48 56 55 62 62 51 53 54 52 49 50 50 50 57
52 50 44 50 49 47 48 48 50 52 53 49 48 48 46 46 48 47 51 53 53 49 46 48 47 48 50 53 55 51 51 49 40 39 45 48 50 53
46 45 42 48 49 50 50 51 52 50 47 45 44 44 44 44 44 45 46 44 44 41 43 44 46 46 47 48 48 49 48 48 37 39 41 44 44 46
41 45 48 47 48 49 51 50 48 44 43 43 43 43 43 42 42 43 41 46 41 40 41 41 41 44 45 42 44 44 46 41 37 39 40 40 40 41
43 49 51 49 49 48 46 45 45 44 42 42 42 43 42 41 39 41 39 39 38 38 38 39 38 39 39 38 44 39 42 37 36 38 38 37 40 41
44 45 43 43 43 43 43 43 42 42 42 41 40 40 40 39 37 38 37 37 36 36 35 36 36 36 36 38 37 38 38 35 36 37 37 37 37 39
44 44 43 43 41 40 40 40 41 42 41 39 39 39 38 37 36 36 36 36 35 36 35 36 37 37 36 35 41 37 35 35 36 37 37 37 37 38
44 43 42 41 41 41 40 40 39 40 39 38 38 38 37 37 36 36 36 36 36 36 36 36 37 36 34 34 35 42 36 35 36 36 36 36 36 37
43 42 41 41 41 40 39 39 38 38 37 37 37 37 36 36 36 36 37 37 36 36 36 36 35 35 35 34 35 36 41 36 36 36 36 36 37 41
42 42 42 41 40 39 39 38 37 37 36 35 35 36 36 36 36 37 37 37 36 35 34 34 35 39 37 37 34 34 35 40 40 37 36 36 36 36
41 41 41 40 40 39 38 38 37 36 35 35 35 35 36 36 36 36 35 35 35 35 35 36 36 36 35 34 34 34 34 36 39 41 41 39 37 36
41 41 40 40 39 38 38 37 36 36 35 35 35 35 36 35 36 36 36 36 36 36 36 36 37 37 35 35 36 36 36 35 35 35 36 40 40 41

GFSNE_sfc_dewp_114.txt.gz
Dewpoint
69 69 72 72 68 68 69 69 69 66 67 67 66 68 70 71 71 72 71 69 68 68 67 66 67 68 69 69 70 70 70 71 71 71 71 71 71 70
67 69 71 71 71 70 69 69 69 68 67 68 68 69 71 69 70 72 72 70 70 68 66 66 66 67 67 67 68 68 68 69 69 70 70 70 70 70
71 70 71 71 69 70 70 70 69 68 66 67 69 70 70 71 71 72 72 73 72 68 66 66 66 66 67 67 66 66 66 66 66 68 69 70 70 70
70 70 70 70 71 70 70 71 70 69 68 67 68 70 70 71 71 72 71 70 72 68 66 66 65 65 65 65 64 63 61 61 62 63 66 68 69 69
72 71 71 71 71 71 70 69 68 69 69 68 68 70 69 70 71 71 72 73 70 70 67 67 66 66 65 64 63 61 59 59 59 60 61 64 66 67
72 72 72 72 72 71 70 70 70 70 69 68 67 67 68 70 70 70 70 71 70 70 69 68 68 68 66 64 64 63 61 59 59 58 59 59 60 62
71 72 72 70 68 68 71 71 70 70 70 68 66 68 68 68 69 70 70 69 69 71 70 71 72 71 67 66 65 63 60 58 57 57 58 58 59 60
70 71 68 66 65 63 65 65 67 70 69 69 68 69 69 70 69 66 68 67 66 68 69 70 69 66 67 61 62 61 58 56 54 54 54 55 57 58
70 69 65 61 61 64 64 63 62 62 64 70 69 68 65 67 64 65 66 67 67 56 67 69 66 61 65 53 59 59 56 52 52 52 53 53 53 55
64 64 60 59 59 58 66 65 59 59 60 58 61 61 60 60 63 65 66 67 69 55 57 62 61 58 65 62 57 55 54 49 49 50 50 50 51 53
56 57 56 52 51 53 58 61 56 57 56 56 56 55 54 54 56 60 58 63 64 58 48 59 52 54 61 61 54 56 50 48 47 48 48 48 46 50
56 55 52 51 50 50 52 54 55 55 55 54 52 52 53 52 54 56 58 61 63 51 48 53 48 51 50 59 54 50 51 46 45 46 47 46 45 44
54 52 48 50 50 47 50 55 55 55 52 50 48 46 47 47 47 48 49 51 51 43 43 50 44 47 49 49 53 48 47 42 40 42 45 45 45 45
51 48 46 49 50 49 52 51 50 50 48 45 44 43 43 43 45 45 47 46 45 44 45 46 43 43 43 43 43 45 42 43 40 40 40 42 44 45
44 46 48 48 48 49 50 49 48 47 46 44 43 43 43 43 44 44 45 46 45 43 40 43 40 42 42 41 44 40 39 37 39 39 39 39 40 41
48 51 50 49 48 47 47 47 46 46 45 43 43 42 42 39 38 40 38 41 37 37 41 42 43 42 38 42 40 38 37 36 37 38 39 39 39 40
48 48 46 46 44 44 44 44 44 43 42 42 41 39 38 37 37 38 37 37 36 36 36 37 41 42 41 43 38 37 37 37 37 38 39 37 38 39
47 46 45 44 43 43 43 42 42 41 41 40 39 38 37 36 36 37 37 36 36 36 36 36 37 37 37 40 41 36 37 36 37 38 39 36 37 38
46 46 44 43 42 42 41 41 39 39 41 39 38 37 37 37 37 37 37 36 36 36 36 37 37 36 34 32 36 39 36 36 37 37 37 37 37 38
46 44 43 43 42 42 41 39 39 38 37 37 37 37 37 37 37 37 36 36 36 36 35 36 36 36 35 34 35 36 41 37 37 37 37 38 39 42
44 43 43 42 42 41 40 40 39 37 36 36 36 36 37 37 37 36 36 36 36 36 35 35 37 39 37 37 35 35 37 41 41 38 37 36 36 36
43 43 43 42 42 41 40 39 38 36 36 36 36 37 37 37 36 36 36 36 36 37 36 37 39 38 37 36 36 37 36 37 39 41 41 38 36 35
44 43 43 42 42 41 40 39 37 36 36 36 36 37 37 36 37 37 37 37 37 37 37 36 36 36 36 36 36 35 38 37 37 36 35 40 42 42

GFSNE_sfc_dewp_117.txt.gz
Dewpoint
72 72 72 72 69 69 70 68 65 60 61 66 65 70 69 71 71 73 72 70 70 69 67 67 68 68 69 69 69 70 70 70 70 71 72 72 72 71
70 71 72 71 71 71 70 69 68 66 62 67 66 69 71 70 71 72 71 71 70 68 67 67 67 68 68 68 67 67 66 68 68 69 70 71 71 71
72 72 72 74 70 69 70 70 69 69 65 64 68 69 72 72 72 71 70 71 69 68 67 66 66 66 67 66 65 64 64 64 65 66 68 70 70 70
72 73 72 69 73 75 70 72 71 72 68 69 70 68 71 72 72 72 69 67 70 68 67 66 66 65 64 64 63 62 61 62 62 63 64 67 68 69
72 72 72 72 74 70 75 75 71 69 73 70 68 70 69 69 70 71 73 73 66 70 67 67 66 65 64 62 61 59 57 57 58 60 61 62 64 65
73 73 73 73 74 73 74 74 71 74 74 73 71 68 68 70 70 69 67 69 67 69 69 68 67 66 63 59 58 56 55 54 54 55 56 59 61 62
72 73 74 69 67 67 71 74 74 74 74 73 73 69 73 67 72 68 66 66 70 67 70 65 64 64 63 59 56 55 54 54 53 53 54 55 57 59
71 72 71 67 65 66 66 66 68 72 73 73 73 71 71 69 68 64 65 64 65 61 70 63 63 58 59 54 53 52 52 52 52 51 50 53 56 57
71 72 69 63 65 67 63 62 61 61 63 71 70 70 68 69 66 67 70 68 67 56 64 72 62 62 57 51 52 51 50 50 50 50 49 49 51 55
67 69 66 61 60 60 67 63 61 60 62 60 64 61 59 61 66 67 70 70 63 57 58 61 57 59 62 55 51 50 49 49 49 48 48 47 47 49
59 59 61 56 52 53 63 63 59 57 54 55 55 55 54 55 58 61 60 60 62 59 50 57 54 53 59 57 52 50 48 48 48 48 47 47 45 46
56 54 51 53 50 50 57 59 59 59 56 56 55 55 56 54 53 57 57 57 59 55 46 51 50 48 50 57 53 45 44 46 47 46 47 46 45 41
59 56 54 51 51 48 51 57 58 58 55 54 51 50 50 50 48 50 52 49 51 45 42 47 46 42 43 44 47 44 42 41 40 41 44 44 45 44
58 55 52 50 49 49 53 52 52 53 51 49 48 46 46 46 47 47 50 48 46 47 47 49 43 41 41 41 43 42 39 40 40 40 41 43 44 45
47 46 49 48 49 50 50 51 51 50 48 48 46 44 43 44 49 48 46 48 47 44 42 48 43 45 42 43 41 38 37 38 39 40 41 40 41 41
51 49 51 50 50 48 48 49 48 48 47 45 44 43 42 40 39 40 40 42 39 37 43 45 46 46 42 43 39 37 38 37 38 39 41 39 40 41
51 50 49 48 47 48 47 46 46 45 44 44 42 41 39 38 38 39 38 38 37 37 36 38 44 46 44 46 40 37 37 37 38 40 41 38 39 40
48 48 48 47 46 46 45 44 43 43 42 41 40 40 38 37 37 37 38 37 36 37 37 37 38 39 39 43 40 37 37 37 38 41 41 38 38 40
45 46 47 46 45 45 43 42 41 42 45 40 39 38 37 37 38 37 37 38 36 38 37 38 38 37 35 32 38 42 36 36 36 36 37 37 37 38
38 42 46 46 45 44 43 42 41 40 39 39 38 37 38 38 37 37 37 38 38 39 37 37 37 38 36 35 36 37 41 38 37 36 35 35 36 43
39 43 46 45 44 44 43 43 42 40 38 37 37 37 37 37 37 38 36 37 37 39 37 36 39 40 40 39 36 37 39 42 41 39 38 34 32 32
44 45 46 45 45 45 44 42 41 38 38 36 36 37 38 38 37 37 38 38 39 38 38 39 42 41 40 37 35 38 37 39 42 43 43 39 33 30
47 46 46 45 45 45 43 42 39 38 37 36 36 37 38 37 39 39 38 39 39 38 39 38 38 38 38 37 37 36 39 38 36 36 37 43 42 42

GFSNE_sfc_dewp_123.txt.gz
Dewpoint
71 73 71 64 60 61 61 60 59 56 55 62 60 69 69 64 71 69 69 71 71 70 69 69 69 69 68 68 68 68 68 68 69 69 70 71 74 74
68 73 73 67 66 65 63 62 63 64 59 59 59 69 70 66 67 70 68 73 70 70 68 67 67 66 65 65 65 65 65 66 67 68 69 70 71 72
72 71 72 73 68 65 66 66 63 61 62 66 64 70 72 69 70 71 68 70 71 68 66 65 63 62 61 61 61 61 62 63 64 66 68 69 70 70
71 73 70 67 74 74 67 73 71 72 67 71 70 65 73 73 71 72 70 67 71 66 63 61 60 59 59 58 57 57 58 60 62 63 64 66 66 66
71 71 71 72 74 70 73 69 68 70 75 74 68 69 73 72 72 73 73 74 70 63 61 59 59 58 57 56 55 54 54 55 57 58 60 62 64 65
74 72 72 73 74 73 75 77 76 74 71 71 72 70 68 74 71 70 69 72 71 69 67 59 58 59 57 55 55 54 53 53 54 55 54 54 56 58
72 72 73 72 69 70 71 75 74 70 70 70 70 70 69 69 71 69 70 70 73 70 69 65 58 56 53 52 52 52 53 53 52 52 53 53 52 53
71 71 72 70 68 67 68 68 70 73 73 74 72 72 73 74 75 72 67 71 70 70 75 73 66 57 51 45 50 50 51 51 51 51 51 52 53 52
72 73 72 70 70 71 63 62 61 61 63 66 72 72 70 69 69 72 72 73 73 64 68 73 70 57 47 42 51 52 51 51 50 50 50 49 50 51
69 69 73 72 64 65 69 67 65 63 63 63 68 66 63 62 65 68 71 72 69 64 66 70 68 60 54 47 52 51 50 49 49 49 49 48 47 48
64 62 66 66 52 52 61 67 64 62 54 55 55 55 55 56 58 60 62 69 71 73 62 57 66 62 62 54 47 51 50 50 49 49 49 47 46 47
64 60 53 59 56 52 57 67 65 64 57 57 59 59 59 58 57 61 56 55 55 61 52 54 56 51 47 58 52 46 45 49 48 48 48 46 44 44
67 64 52 52 53 51 51 60 63 61 61 61 61 58 56 56 52 55 58 52 52 51 49 52 54 44 43 45 51 47 45 45 44 45 46 45 44 44
65 62 56 51 51 51 53 54 54 56 59 58 56 54 53 51 51 52 56 54 52 54 53 56 46 43 44 40 40 47 43 45 43 43 44 45 46 46
48 55 52 51 51 52 54 53 53 58 59 56 53 53 51 50 55 53 53 57 53 48 45 53 49 50 44 41 42 42 40 41 43 43 45 44 44 45
52 54 53 52 51 52 52 51 54 55 54 53 55 53 55 49 45 45 43 44 41 46 51 50 53 53 45 44 43 41 42 40 43 44 46 44 44 44
49 52 52 54 52 52 54 53 53 52 51 52 51 49 46 48 48 49 42 41 40 44 40 43 52 52 48 53 42 42 41 40 41 44 48 42 43 43
48 51 51 50 47 47 48 49 50 49 50 49 48 47 44 43 45 45 41 40 40 40 39 41 41 42 44 48 43 41 40 40 42 45 46 40 39 42
40 42 44 50 52 49 47 49 50 49 53 47 45 44 42 42 40 44 40 39 39 39 40 41 40 39 37 35 42 43 41 40 40 40 40 39 38 39
40 39 38 41 47 48 50 49 50 51 48 49 45 46 43 44 40 38 38 38 38 39 38 40 40 40 39 39 39 41 44 44 41 40 38 39 40 44
38 38 39 39 41 45 48 49 49 46 44 44 42 41 39 39 38 37 37 38 37 40 38 38 45 42 43 44 40 41 42 44 46 43 41 37 36 34
42 42 42 44 46 48 48 48 47 46 44 43 42 40 40 39 37 37 36 37 38 37 37 38 45 42 41 39 36 39 38 43 45 46 46 43 37 32
47 48 48 46 49 50 50 48 46 44 44 43 40 40 40 38 38 38 36 36 36 36 37 37 37 38 38 37 37 36 41 40 36 37 41 46 46 46